CYGFM03 (41891 NORAD) Tracking and Keplerian Element Data

This shows tracking and keplerian element data for the satellite.

Feedback or suggestion? Click here.




ElementValue
Catalog41891
NameCYGFM03
Epoch Orbit26461
Epoch Day268.66435356
Epoch Year2021
RAAN39.8473
Inclination34.9564
Eccentricity0.001368
Argument of Perigee254.862
Mean Anonmoly105.0579
Mean Motion15.15653485
Decay Rate1.168E-05
L11 41891U 16078H 21268.66435356 .00001168 00000-0 61586-4 0 9998
L22 41891 34.9564 39.8473 0013680 254.8620 105.0579 15.15653485264614

Live tracking and technical data element details for CYGFM03 (NORAD 41891). CYGFM03 can be tracked NOW for your location showing map with azimuth and elevation plus other details from your city location.

Track the satellite on the map from your city or location and see movement details for azimuth, elevation, latitude, longitude, range, height, and movement on the map or in text.







IsCatalogInMostPopularTable: catalog: 41891, numindb: 532
Update: records affected: 1



GetName: 41891 CYGFM03

Hit Count: updated at: Mon, 27 Sep 2021 00:15:41 GMT